This demonstration page uses our WeatherBlox Daily Observations layout. Learn more.

Hourly Observations for September 14, 2018

Temp ( °F °C ) Dew Point ( °F °C ) Humidity (%) Winds ( mph kmh ) Pressure ( in mb ) Visibility ( mi km ) Precip ( " mm )
12:15 am 00:15 Clear 71 21.6 67 19.3 87 87 SSE 13 20 29.88 1012 10 16.09344 0 0
12:35 am 00:35 Clear 71 21.4 67 19.7 90 90 SSE 12 19 29.88 1012 10 16.09344 0 0
12:55 am 00:55 Clear 70 21.1 68 19.9 93 93 SSE 13 20 29.88 1012 10 16.09344 0 0
1:15 am 01:15 Clear 70 20.9 68 20 95 95 SSE 13 20 29.88 1012 10 16.09344 0 0
1:35 am 01:35 Clear 69 20.8 68 20.1 96 96 SSE 14 22 29.88 1012 10 16.09344 0 0
1:55 am 01:55 Clear 69 20.6 68 20.1 97 97 SSE 13 20 29.88 1012 10 16.09344 0 0
2:15 am 02:15 Partly Cloudy 69 20.5 68 20.1 98 98 SSE 13 20 29.88 1012 10 16.09344 0 0
2:35 am 02:35 Partly Cloudy 68 20.2 68 20 99 99 SSE 13 20 29.88 1012 10 16.09344 0 0
2:55 am 02:55 Mostly Cloudy 68 20.2 68 20 99 99 SSE 14 22 29.88 1012 10 16.09344 0 0
3:15 am 03:15 Cloudy 68 20.2 68 20 99 99 SSE 12 19 29.88 1012 10 16.09344 0 0
3:35 am 03:35 Cloudy 68 20.2 68 20 99 99 SSE 13 20 29.85 1011 10 16.09344 0 0
3:55 am 03:55 Cloudy 68 20.2 68 20 99 99 S 12 19 29.88 1012 10 16.09344 0 0
4:15 am 04:15 Cloudy 68 20.1 68 20 99 99 SSE 12 19 29.88 1012 10 16.09344 0 0
4:35 am 04:35 Mostly Cloudy 68 20 68 20 100 100 S 12 19 29.88 1012 10 16.09344 0 0
4:55 am 04:55 Partly Cloudy 68 20 68 19.8 99 99 SSE 12 19 29.88 1012 10 16.09344 0 0
5:15 am 05:15 Partly Cloudy 67 19.7 67 19.7 100 100 SSE 12 19 29.88 1012 10 16.09344 0 0
5:35 am 05:35 Partly Cloudy 68 19.8 67 19.7 99 99 SSE 14 22 29.88 1012 10 16.09344 0 0
5:55 am 05:55 Partly Cloudy 67 19.7 67 19.5 99 99 SSE 12 19 29.88 1012 10 16.09344 0 0
6:15 am 06:15 Clear 67 19.5 67 19.5 100 100 SSE 10 17 29.88 1012 10 16.09344 0 0
6:35 am 06:35 Clear 67 19.5 67 19.5 100 100 SSE 8 13 29.88 1012 10 16.09344 0 0
6:55 am 06:55 Clear 67 19.3 67 19.2 99 99 SSE 10 17 29.88 1012 10 16.09344 0 0
7:15 am 07:15 Partly Cloudy 67 19.2 67 19.2 100 100 SSE 10 17 29.88 1012 10 16.09344 0 0
7:35 am 07:35 Partly Cloudy 66 19 66 19 100 100 SSE 8 13 29.91 1013 7 11.265408 0 0
7:55 am 07:55 Cloudy 66 19.1 66 19.1 100 100 SSE 9 15 29.94 1014 7 11.265408 0 0
8:15 am 08:15 Cloudy 67 19.3 67 19.3 100 100 SSE 12 19 29.94 1014 7 11.265408 0 0
8:35 am 08:35 Cloudy 67 19.7 67 19.7 100 100 SSE 12 19 29.91 1013 10 16.09344 0 0
8:55 am 08:55 Cloudy 68 20.1 68 19.8 98 98 SSE 13 20 29.91 1013 10 16.09344 0 0
9:15 am 09:15 Mostly Cloudy 70 21 68 20.1 95 95 S 13 20 29.91 1013 10 16.09344 0 0
9:35 am 09:35 Partly Cloudy 71 21.8 68 20.1 90 90 S 13 20 29.91 1013 10 16.09344 0 0
9:55 am 09:55 Partly Cloudy 73 22.6 69 20.4 87 87 S 12 19 29.91 1013 10 16.09344 0 0
10:15 am 10:15 Partly Cloudy 74 23.6 69 20.3 82 82 S 13 20 29.88 1012 10 16.09344 0 0
10:35 am 10:35 Sunny 75 24.1 68 20.1 78 78 S 16 26 29.88 1012 10 16.09344 0 0
10:55 am 10:55 Sunny 76 24.5 68 20 76 76 S 14 22 29.88 1012 10 16.09344 0 0
11:15 am 11:15 Sunny 77 25.1 68 20.2 74 74 S 14 22 29.88 1012 10 16.09344 0 0
11:35 am 11:35 Sunny 78 25.5 69 20.3 73 73 S 12 19 29.88 1012 10 16.09344 0 0
11:55 am 11:55 Sunny 79 26.2 69 20.3 70 70 SSE 10 17 29.88 1012 10 16.09344 0 0
12:15 pm 12:15 Sunny 80 26.7 69 20.3 68 68 S 13 20 29.88 1012 10 16.09344 0 0
12:35 pm 12:35 Sunny 82 27.6 69 20.6 66 66 SSE 14 22 29.85 1011 10 16.09344 0 0
12:55 pm 12:55 Sunny 82 27.8 69 20.6 65 65 S 13 20 29.85 1011 10 16.09344 0 0
1:15 pm 13:15 Sunny 83 28.3 68 20.2 62 62 SSE 16 26 29.85 1011 10 16.09344 0 0
1:35 pm 13:35 Sunny 84 28.7 68 20.1 60 60 S 14 22 29.85 1011 10 16.09344 0 0
1:55 pm 13:55 Sunny 84 29.1 68 20.1 58 58 SSE 15 24 29.85 1011 10 16.09344 0 0
2:15 pm 14:15 Sunny 85 29.5 68 19.9 56 56 SSE 16 26 29.85 1011 10 16.09344 0 0
2:35 pm 14:35 Sunny 86 30.2 69 20.5 56 56 SSE 16 26 29.83 1010 10 16.09344 0 0
2:55 pm 14:55 Sunny 87 30.6 69 20.7 56 56 SSE 16 26 29.8 1009 10 16.09344 0 0
3:15 pm 15:15 Sunny 87 30.5 69 20.6 55 55 SSE 17 28 29.8 1009 10 16.09344 0 0
3:35 pm 15:35 Sunny 87 30.6 69 20.4 54 54 SSE 20 31 29.8 1009 10 16.09344 0 0
3:55 pm 15:55 Sunny 88 31 69 20.3 53 53 SSE 20 31 29.8 1009 7 11.265408 0 0
4:15 pm 16:15 Sunny 88 31.2 69 20.6 53 53 SSE 18 30 29.8 1009 10 16.09344 0 0
4:35 pm 16:35 Sunny 88 31.3 69 20.5 53 53 SSE 22 35 29.8 1009 10 16.09344 0 0
4:55 pm 16:55 Sunny 88 31.2 67 19.4 49 49 S 22 35 29.8 1009 10 16.09344 0 0
5:15 pm 17:15 Sunny 88 31.2 67 19.2 49 49 SSE 18 30 29.8 1009 10 16.09344 0 0
5:35 pm 17:35 Sunny 88 31 66 18.9 48 48 SSE 20 31 29.8 1009 10 16.09344 0 0
5:55 pm 17:55 Sunny 87 30.7 66 18.9 49 49 SSE 21 33 29.8 1009 10 16.09344 0 0
6:15 pm 18:15 Sunny 87 30.3 67 19.3 52 52 SSE 21 33 29.8 1009 10 16.09344 0 0
6:35 pm 18:35 Sunny 86 30.1 66 19.1 52 52 SSE 17 28 29.85 1011 10 16.09344 0 0
6:55 pm 18:55 Sunny 85 29.4 67 19.6 56 56 SSE 13 20 29.85 1011 10 16.09344 0 0
7:15 pm 19:15 Sunny 83 28.5 68 19.9 60 60 SSE 13 20 29.85 1011 10 16.09344 0 0
7:35 pm 19:35 Sunny 81 27.3 68 20 64 64 SSE 10 17 29.85 1011 10 16.09344 0 0
7:55 pm 19:55 Clear 79 26.2 68 20.1 69 69 SSE 9 15 29.88 1012 10 16.09344 0 0
8:15 pm 20:15 Clear 78 25.3 68 20.1 73 73 SE 9 15 29.88 1012 10 16.09344 0 0
8:35 pm 20:35 Clear 76 24.5 68 20.1 77 77 SE 10 17 29.88 1012 10 16.09344 0 0
8:55 pm 20:55 Clear 75 24.1 68 20 78 78 SE 9 15 29.91 1013 10 16.09344 0 0
9:15 pm 21:15 Clear 75 23.9 68 20 79 79 SSE 10 17 29.91 1013 10 16.09344 0 0
9:35 pm 21:35 Clear 75 23.7 68 19.8 79 79 SSE 12 19 29.91 1013 10 16.09344 0 0
9:55 pm 21:55 Clear 74 23.6 67 19.6 78 78 SSE 12 19 29.91 1013 10 16.09344 0 0
10:15 pm 22:15 Clear 74 23.5 67 19.4 78 78 SSE 13 20 29.91 1013 10 16.09344 0 0
10:35 pm 22:35 Clear 74 23.2 67 19.3 79 79 SSE 12 19 29.94 1014 10 16.09344 0 0
10:55 pm 22:55 Clear 73 23 67 19.2 79 79 SSE 10 17 29.94 1014 10 16.09344 0 0
11:15 pm 23:15 Clear 73 23 67 19.3 80 80 SSE 13 20 29.97 1015 10 16.09344 0 0
11:35 pm 23:35 Clear 73 22.9 67 19.3 80 80 SSE 13 20 29.97 1015 10 16.09344 0 0
11:55 pm 23:55 Clear 73 22.9 67 19.3 80 80 SSE 10 17 29.97 1015 10 16.09344 0 0

Powered by AerisWeather